Hourly Weather Bolshoe Nurkeevo

Today, 2 August, Monday

Time Temperature Precipitation Wind Pressure Humidity
00:00 +20°C° 0 mm 2 mps 750 mmHg 60%
01:00 +20°C° 0 mm 2 mps 751 mmHg 61%
02:00 +19°C° 0 mm 2 mps 751 mmHg 63%
03:00 +19°C° 0 mm 2 mps 751 mmHg 64%
04:00 +18°C° 0 mm 2 mps 751 mmHg 66%
05:00 +20°C° 0 mm 2 mps 751 mmHg 62%
06:00 +21°C° 0 mm 2 mps 751 mmHg 58%
07:00 +23°C° 0 mm 2 mps 751 mmHg 55%
08:00 +25°C° 0 mm 2 mps 751 mmHg 49%
09:00 +28°C° 0 mm 3 mps 751 mmHg 43%
10:00 +30°C° 0 mm 3 mps 752 mmHg 38%
11:00 +31°C° 0 mm 3 mps 751 mmHg 35%
12:00 +33°C° 0 mm 4 mps 751 mmHg 33%
13:00 +34°C° 0 mm 4 mps 751 mmHg 30%
14:00 +34°C° 0 mm 4 mps 751 mmHg 30%
15:00 +34°C° 0 mm 4 mps 750 mmHg 29%
16:00 +35°C° 0 mm 5 mps 750 mmHg 29%
17:00 +33°C° 0 mm 4 mps 750 mmHg 33%
18:00 +31°C° 0 mm 3 mps 750 mmHg 37%
19:00 +30°C° 0 mm 2 mps 750 mmHg 42%
20:00 +28°C° 0 mm 2 mps 750 mmHg 45%
21:00 +27°C° 0 mm 1 mps 750 mmHg 48%
22:00 +23°C° 0 mm 0 mps 750 mmHg 51%
23:00 +25°C° 0 mm 1 mps 750 mmHg 52%

Tomorrow, 3 August, Tuesday

Time Temperature Precipitation Wind Pressure Humidity
00:00 +24°C° 0 mm 1 mps 750 mmHg 52%
01:00 +24°C° 0 mm 2 mps 750 mmHg 53%
02:00 +23°C° 0 mm 2 mps 750 mmHg 54%
03:00 +23°C° 0 mm 2 mps 750 mmHg 55%
04:00 +21°C° 0 mm 2 mps 750 mmHg 56%
05:00 +24°C° 0 mm 2 mps 750 mmHg 53%
06:00 +25°C° 0 mm 2 mps 750 mmHg 50%
07:00 +26°C° 0 mm 2 mps 750 mmHg 46%
08:00 +29°C° 0 mm 2 mps 750 mmHg 40%
09:00 +31°C° 0 mm 3 mps 750 mmHg 34%
10:00 +35°C° 0 mm 3 mps 750 mmHg 28%
11:00 +36°C° 0 mm 3 mps 749 mmHg 26%
12:00 +37°C° 0 mm 3 mps 749 mmHg 23%
13:00 +38°C° 0 mm 3 mps 749 mmHg 21%
14:00 +40°C° 0 mm 4 mps 749 mmHg 20%
15:00 +40°C° 0 mm 4 mps 748 mmHg 19%
16:00 +40°C° 0 mm 5 mps 748 mmHg 18%
17:00 +37°C° 0 mm 4 mps 748 mmHg 25%
18:00 +34°C° 0 mm 4 mps 748 mmHg 32%
19:00 +32°C° 0 mm 4 mps 748 mmHg 38%
20:00 +29°C° 0.1 mm 4 mps 748 mmHg 41%
21:00 +28°C° 0.1 mm 3 mps 748 mmHg 43%
22:00 +26°C° 0.1 mm 3 mps 748 mmHg 46%
23:00 +26°C° 0 mm 3 mps 748 mmHg 47%

Day after tomorrow, 4 August, Wednesday

Time Temperature Precipitation Wind Pressure Humidity
00:00 +25°C° 0 mm 2 mps 748 mmHg 48%
01:00 +25°C° 0 mm 2 mps 747 mmHg 49%
02:00 +25°C° 0 mm 2 mps 747 mmHg 50%
03:00 +24°C° 0 mm 2 mps 747 mmHg 51%
04:00 +24°C° 0 mm 2 mps 747 mmHg 52%
05:00 +24°C° 0 mm 2 mps 747 mmHg 51%
06:00 +25°C° 0 mm 2 mps 748 mmHg 50%
07:00 +26°C° 0 mm 2 mps 748 mmHg 49%
08:00 +28°C° 0 mm 3 mps 748 mmHg 45%
09:00 +30°C° 0 mm 3 mps 747 mmHg 41%
10:00 +33°C° 0 mm 3 mps 747 mmHg 36%
11:00 +33°C° 0 mm 4 mps 747 mmHg 35%
12:00 +34°C° 0 mm 5 mps 747 mmHg 33%
13:00 +35°C° 0 mm 6 mps 747 mmHg 32%
14:00 +35°C° 0 mm 6 mps 747 mmHg 31%
15:00 +35°C° 0 mm 6 mps 748 mmHg 31%
16:00 +35°C° 0 mm 6 mps 748 mmHg 31%
17:00 +33°C° 0 mm 6 mps 748 mmHg 36%
18:00 +30°C° 0 mm 5 mps 748 mmHg 42%
19:00 +29°C° 0 mm 5 mps 748 mmHg 48%
20:00 +27°C° 0 mm 4 mps 748 mmHg 56%
21:00 +25°C° 0 mm 3 mps 748 mmHg 63%
22:00 +23°C° 0 mm 2 mps 749 mmHg 71%
23:00 +21°C° 0 mm 2 mps 749 mmHg 76%

5 August, Thursday

Time Temperature Precipitation Wind Pressure Humidity
00:00 +20°C° 0 mm 2 mps 749 mmHg 81%
01:00 +19°C° 0 mm 2 mps 749 mmHg 86%
02:00 +19°C° 0.2 mm 2 mps 750 mmHg 89%
03:00 +18°C° 0.2 mm 2 mps 750 mmHg 91%
04:00 +18°C° 0.2 mm 2 mps 750 mmHg 94%
05:00 +18°C° 0 mm 2 mps 750 mmHg 91%
06:00 +19°C° 0 mm 3 mps 750 mmHg 89%
07:00 +20°C° 0 mm 3 mps 750 mmHg 86%
08:00 +21°C° 0.1 mm 3 mps 751 mmHg 77%
09:00 +23°C° 0.1 mm 4 mps 751 mmHg 68%
10:00 +25°C° 0.1 mm 4 mps 751 mmHg 58%
11:00 +26°C° 0.1 mm 4 mps 751 mmHg 52%
12:00 +27°C° 0.1 mm 5 mps 751 mmHg 45%
13:00 +28°C° 0.1 mm 5 mps 751 mmHg 38%
14:00 +28°C° 0 mm 5 mps 751 mmHg 38%
15:00 +28°C° 0 mm 5 mps 751 mmHg 38%
16:00 +27°C° 0 mm 5 mps 751 mmHg 38%
17:00 +26°C° 0 mm 5 mps 751 mmHg 40%
18:00 +26°C° 0 mm 5 mps 751 mmHg 43%
19:00 +25°C° 0 mm 5 mps 752 mmHg 45%
20:00 +22°C° 0 mm 4 mps 752 mmHg 52%
21:00 +21°C° 0 mm 3 mps 752 mmHg 59%
22:00 +19°C° 0 mm 2 mps 752 mmHg 66%
23:00 +19°C° 0 mm 2 mps 752 mmHg 68%

6 August, Friday

Time Temperature Precipitation Wind Pressure Humidity
00:00 +18°C° 0 mm 2 mps 752 mmHg 71%
01:00 +17°C° 0 mm 2 mps 752 mmHg 74%
02:00 +17°C° 0 mm 2 mps 752 mmHg 73%
03:00 +17°C° 0 mm 2 mps 753 mmHg 72%
04:00 +17°C° 0 mm 2 mps 753 mmHg 71%
05:00 +18°C° 0 mm 2 mps 753 mmHg 66%
06:00 +19°C° 0 mm 2 mps 753 mmHg 62%
07:00 +19°C° 0 mm 2 mps 753 mmHg 58%
08:00 +20°C° 0 mm 3 mps 754 mmHg 53%
09:00 +21°C° 0 mm 3 mps 754 mmHg 49%
10:00 +22°C° 0 mm 4 mps 754 mmHg 44%
11:00 +25°C° 0 mm 4 mps 754 mmHg 39%
12:00 +26°C° 0 mm 4 mps 754 mmHg 34%
13:00 +27°C° 0 mm 5 mps 754 mmHg 28%
14:00 +27°C° 0 mm 5 mps 754 mmHg 27%
15:00 +27°C° 0 mm 5 mps 754 mmHg 26%
16:00 +28°C° 0 mm 5 mps 754 mmHg 25%
17:00 +27°C° 0 mm 5 mps 754 mmHg 28%
18:00 +26°C° 0 mm 5 mps 754 mmHg 31%
19:00 +25°C° 0 mm 5 mps 754 mmHg 34%
20:00 +21°C° 0 mm 5 mps 755 mmHg 40%
21:00 +19°C° 0 mm 4 mps 755 mmHg 46%
22:00 +17°C° 0 mm 3 mps 755 mmHg 53%
23:00 +16°C° 0 mm 2 mps 756 mmHg 57%

7 August, Saturday

Time Temperature Precipitation Wind Pressure Humidity
00:00 +15°C° 0 mm 2 mps 756 mmHg 61%
01:00 +14°C° 0 mm 2 mps 756 mmHg 65%
02:00 +14°C° 0 mm 2 mps 756 mmHg 66%
03:00 +13°C° 0 mm 2 mps 757 mmHg 68%
04:00 +12°C° 0 mm 2 mps 757 mmHg 70%
05:00 +14°C° 0 mm 2 mps 757 mmHg 64%
06:00 +15°C° 0 mm 2 mps 757 mmHg 58%
07:00 +16°C° 0 mm 2 mps 758 mmHg 52%
08:00 +18°C° 0 mm 3 mps 758 mmHg 46%
09:00 +20°C° 0 mm 3 mps 758 mmHg 40%
10:00 +21°C° 0 mm 4 mps 758 mmHg 34%
11:00 +22°C° 0 mm 4 mps 758 mmHg 32%
12:00 +23°C° 0 mm 4 mps 758 mmHg 30%
13:00 +25°C° 0 mm 4 mps 757 mmHg 28%
14:00 +25°C° 0 mm 5 mps 757 mmHg 27%
15:00 +25°C° 0 mm 5 mps 757 mmHg 27%
16:00 +25°C° 0 mm 5 mps 757 mmHg 26%
17:00 +25°C° 0 mm 5 mps 757 mmHg 29%
18:00 +23°C° 0 mm 5 mps 757 mmHg 31%
19:00 +22°C° 0 mm 4 mps 758 mmHg 33%
20:00 +20°C° 0 mm 4 mps 758 mmHg 40%
21:00 +17°C° 0 mm 3 mps 758 mmHg 47%
22:00 +15°C° 0 mm 2 mps 758 mmHg 53%
23:00 +14°C° 0 mm 2 mps 758 mmHg 58%
Show more

We Need Your Consent

Meteoprog and our Service Providers may store and access personal data such as cookies, device identifiers or other similar technologies on your device and process such data to personalise content and ads, as well as provide social media features and to analyse the traffic.

  • Store and/or access information on your device

    Cookies, device identifiers or other information can be stored or accessed on your device for the purposes indicated above.

  • Personalised ads and content, ad and content measurement, audience insights, and products development

    Ads and content can be personalised based on a profile. More data can be added to better personalise ads and content. Ad and content performance can be measured. Insights about the audience who saw the ads and content can be derived. Such data can be used to develop or improve user’s experience, systems and software.

By clicking ‘I Agree’ you will allow the use of indicated cookies, device identifiers, web beacons or other similar technologies. Your settings can be changed in the browser on your device.

For certain purposes, legitimate interests may be relied on, rather than consent. You can read more about this in our Privacy and Cookie Policy.